Marshalltown, IA

7:36 PM CDT on June 28, 2017 (GMT -0500)
Marshalltown Municipal

Weather History for KMIW - April, 2013

Change the Weather History Date:

Thursday, April 11, 2013

  Actual Average Record
Temperature  
Mean Temperature 40 °F 47 °F  
Max Temperature 44 °F 59 °F 75 °F (2014)
Min Temperature 36 °F 36 °F 16 °F (2004)
Degree Days  
Heating Degree Days 25 18  
Month to date heating degree days 251 214  
Since 1 July heating degree days 6397 6515  
Cooling Degree Days 0 0  
Month to date cooling degree days 0 0  
Year to date cooling degree days 0 0  
Moisture  
Dew Point 37 °F    
Average Humidity 90    
Maximum Humidity 100    
Minimum Humidity 79    
Precipitation  
Precipitation 0.30 in 0.09 in 1.25 in (2005)
Month to date precipitation 2.47 0.83  
Sea Level Pressure  
Sea Level Pressure 29.62 in    
Wind  
Wind Speed 9 mph (SE)    
Max Wind Speed 23 mph    
Max Gust Speed 29 mph    
Visibility 6 miles    
Events Rain    
T = Trace of Precipitation, MM = Missing Value Source: NWS Daily Summary

Daily Weather History Graph

Daily Weather History Graph

Search for Another Location

Airport or City:

Trip Planner

Search our weather history database for the weather conditions in past years. The results will help you decide how hot, cold, wet, or windy it might be!

Date:

Astronomy

Apr. 11, 2013 Rise Set
Actual Time 6:37 AM CDT 7:48 PM CDT
Civil Twilight 6:08 AM CDT 8:17 PM CDT
Nautical Twilight 5:33 AM CDT 8:52 PM CDT
Astronomical Twilight 4:57 AM CDT 9:28 PM CDT
Moon 7:07 AM CDT (4/11) 9:25 PM CDT (4/11)
Length of Visible Light 14h 09m
Length of Day
13h 11m
New Moon, 2% of the Moon is Illuminated
Apr 11
New Moon
Apr 18
First Quarter
Apr 25
Full
May 2
Last Quarter
May 9
New

Hourly Weather History & Observations

Time (CDT) Temp. Windchill Dew Point Humidity Pressure Visibility Wind Dir Wind Speed Gust Speed Precip Events Conditions
12:33 AM 37.4 °F 30.8 °F 35.6 °F 93% 29.72 in 2.5 mi East 9.2 mph - 0.02 in Rain Light Rain
12:43 AM 37.4 °F 29.8 °F 37.4 °F 100% 29.71 in 3.0 mi East 11.5 mph - 0.02 in Rain Light Rain
12:53 AM 37.9 °F 30.9 °F 37.0 °F 97% 29.74 in 4.0 mi East 10.4 mph - 0.02 in Rain Light Rain
1:08 AM 37.4 °F 30.8 °F 37.4 °F 100% 29.70 in 3.0 mi East 9.2 mph - 0.01 in Rain Light Rain
1:38 AM 37.4 °F 31.4 °F 37.4 °F 100% 29.70 in 3.0 mi East 8.1 mph - 0.05 in Rain Light Rain
1:45 AM 37.4 °F 32.1 °F 37.4 °F 100% 29.70 in 4.0 mi East 6.9 mph - 0.05 in Rain Light Rain
1:53 AM 37.9 °F 33.5 °F 37.0 °F 97% 29.72 in 3.0 mi East 5.8 mph - 0.06 in Rain Light Rain
2:09 AM 37.4 °F 32.1 °F 37.4 °F 100% 29.69 in 3.0 mi East 6.9 mph - 0.02 in Rain Light Rain
2:21 AM 37.4 °F 33.8 °F 37.4 °F 100% 29.69 in 2.5 mi East 4.6 mph - 0.03 in Rain Light Rain
2:50 AM 37.4 °F 31.4 °F 37.4 °F 100% 29.66 in 3.0 mi ENE 8.1 mph - 0.06 in Rain Light Rain
2:53 AM 37.0 °F 31.0 °F 37.0 °F 100% 29.68 in 3.0 mi ENE 8.1 mph - 0.06 in Rain Light Rain
3:02 AM 37.4 °F 33.8 °F 37.4 °F 100% 29.66 in 3.0 mi ENE 4.6 mph - N/A   Overcast
3:16 AM 37.4 °F 33.8 °F 37.4 °F 100% 29.67 in 4.0 mi ENE 4.6 mph - N/A   Overcast
3:31 AM 37.4 °F 34.9 °F 37.4 °F 100% 29.67 in 2.5 mi ENE 3.5 mph - 0.01 in Rain Light Rain
3:53 AM 37.9 °F - 37.0 °F 97% 29.70 in 2.5 mi Calm Calm - 0.04 in Rain Light Rain
4:04 AM 37.4 °F - 37.4 °F 100% 29.67 in 3.0 mi Calm Calm - 0.01 in Rain Light Rain
4:23 AM 37.4 °F 34.9 °F 37.4 °F 100% 29.67 in 4.0 mi NNE 3.5 mph - 0.03 in Rain Rain
4:53 AM 37.0 °F 31.0 °F 37.0 °F 100% 29.65 in 6.0 mi NNE 8.1 mph - 0.05 in Rain Light Rain
5:18 AM 37.4 °F 32.1 °F 37.4 °F 100% 29.62 in 10.0 mi NE 6.9 mph - 0.01 in   Overcast
5:33 AM 37.4 °F 32.8 °F 37.4 °F 100% 29.63 in 10.0 mi NE 5.8 mph - 0.01 in   Overcast
5:53 AM 37.0 °F 31.0 °F 37.0 °F 100% 29.63 in 10.0 mi NE 8.1 mph - 0.01 in   Overcast
6:31 AM 37.4 °F 32.8 °F 37.4 °F 100% 29.62 in 10.0 mi ENE 5.8 mph - N/A   Overcast
6:53 AM 37.9 °F 34.4 °F 37.0 °F 97% 29.64 in 10.0 mi ENE 4.6 mph - N/A   Overcast
7:53 AM 37.9 °F 32.1 °F 37.9 °F 100% 29.64 in 4.0 mi ENE 8.1 mph - N/A   Overcast
8:20 AM 37.4 °F 32.1 °F 37.4 °F 100% 29.62 in 2.0 mi East 6.9 mph - N/A   Overcast
8:28 AM 39.2 °F 33.6 °F 37.4 °F 93% 29.62 in 1.5 mi ESE 8.1 mph - N/A   Overcast
8:53 AM 39.0 °F 34.0 °F 39.0 °F 100% 29.64 in 1.0 mi ESE 6.9 mph - N/A   Overcast
9:24 AM 39.2 °F 34.2 °F 39.2 °F 100% 29.60 in 2.0 mi ESE 6.9 mph - N/A   Overcast
9:37 AM 39.2 °F 37.0 °F 39.2 °F 100% 29.61 in 5.0 mi SE 3.5 mph - N/A   Overcast
9:48 AM 39.2 °F 35.9 °F 39.2 °F 100% 29.60 in 8.0 mi ESE 4.6 mph - N/A   Overcast
9:53 AM 39.9 °F 36.7 °F 39.0 °F 97% 29.62 in 9.0 mi SSE 4.6 mph - N/A   Overcast
10:53 AM 41.0 °F - 39.0 °F 93% 29.62 in 10.0 mi Calm Calm - N/A   Overcast
12:09 PM 42.8 °F - 39.2 °F 87% 29.57 in 9.0 mi Calm Calm - N/A   Overcast
12:53 PM 42.1 °F 40.2 °F 39.0 °F 89% 29.60 in 10.0 mi ESE 3.5 mph - N/A   Overcast
1:03 PM 42.8 °F 40.1 °F 39.2 °F 87% 29.58 in 5.0 mi SSE 4.6 mph - N/A   Overcast
1:13 PM 42.8 °F - 41.0 °F 93% 29.56 in 2.0 mi Calm Calm - 0.01 in Rain Light Rain
1:24 PM 42.8 °F - 41.0 °F 93% 29.56 in 3.0 mi Calm Calm - 0.01 in   Overcast
1:39 PM 42.8 °F 38.6 °F 42.8 °F 100% 29.56 in 2.0 mi SSW 6.9 mph - 0.02 in Rain Light Rain
1:46 PM 42.8 °F 37.5 °F 39.2 °F 87% 29.57 in 3.0 mi SW 9.2 mph - 0.02 in Rain Light Rain
1:53 PM 43.0 °F 35.1 °F 39.9 °F 89% 29.59 in 4.0 mi WSW 17.3 mph - 0.03 in Rain Light Rain
2:07 PM 42.8 °F 35.8 °F 41.0 °F 93% 29.57 in 6.0 mi WSW 13.8 mph - 0.01 in Rain Light Rain
2:19 PM 42.8 °F 34.5 °F 39.2 °F 87% 29.56 in 6.0 mi WSW 18.4 mph - 0.02 in Rain Light Rain
2:28 PM 42.8 °F 35.1 °F 39.2 °F 87% 29.56 in 9.0 mi WSW 16.1 mph - 0.03 in Rain Light Rain
2:53 PM 43.0 °F 35.7 °F 39.9 °F 89% 29.58 in 10.0 mi West 15.0 mph - 0.03 in Rain Light Rain
3:53 PM 39.9 °F 30.5 °F 37.9 °F 93% 29.59 in 7.0 mi WSW 19.6 mph - 0.00 in Rain Light Rain
4:12 PM 39.2 °F 30.5 °F 37.4 °F 93% 29.57 in 7.0 mi WSW 16.1 mph - 0.01 in Rain Light Rain
4:49 PM 39.2 °F 29.8 °F 35.6 °F 87% 29.58 in 10.0 mi WSW 18.4 mph - 0.02 in   Overcast
4:53 PM 39.9 °F 31.1 °F 37.0 °F 89% 29.60 in 10.0 mi WSW 17.3 mph - 0.02 in   Overcast
5:32 PM 39.2 °F 30.5 °F 35.6 °F 87% 29.57 in 10.0 mi West 16.1 mph - N/A   Overcast
5:53 PM 39.9 °F 32.1 °F 35.1 °F 83% 29.58 in 10.0 mi West 13.8 mph - N/A   Overcast
6:53 PM 39.0 °F 31.4 °F 34.0 °F 82% 29.58 in 10.0 mi WSW 12.7 mph - N/A   Overcast
7:53 PM 36.0 °F 28.0 °F 34.0 °F 93% 29.60 in 10.0 mi SW 11.5 mph - N/A   Overcast
8:36 PM 37.4 °F 29.8 °F 33.8 °F 87% 29.58 in 10.0 mi SW 11.5 mph - N/A   Overcast
8:53 PM 36.0 °F 27.5 °F 34.0 °F 93% 29.61 in 10.0 mi SW 12.7 mph - N/A   Overcast
9:09 PM 35.6 °F 26.6 °F 33.8 °F 93% 29.58 in 10.0 mi SW 13.8 mph - N/A   Overcast
9:17 PM 37.4 °F 28.9 °F 33.8 °F 87% 29.58 in 10.0 mi SW 13.8 mph - N/A   Overcast
9:53 PM 36.0 °F 26.7 °F 33.1 °F 89% 29.61 in 10.0 mi SW 15.0 mph - N/A   Overcast
10:53 PM 36.0 °F 27.5 °F 33.1 °F 89% 29.60 in 10.0 mi SW 12.7 mph - N/A   Overcast
11:53 PM 36.0 °F 29.0 °F 34.0 °F 93% 29.60 in 10.0 mi SW 9.2 mph - N/A   Overcast